Duluth, MN

6:33 AM CST on December 08, 2016 (GMT -0600)
Sky Harbor

Weather History for KDYT - October, 2012

Change the Weather History Date:

Friday, October 26, 2012

  Actual Average Record
Temperature  
Mean Temperature 37 °F -  
Max Temperature 39 °F 52 °F 69 °F (1964)
Min Temperature 35 °F 34 °F 10 °F (1962)
Degree Days  
Heating Degree Days 28    
Moisture  
Dew Point 26 °F    
Average Humidity 63    
Maximum Humidity 75    
Minimum Humidity 49    
Precipitation  
Precipitation 0.00 in - - ()
Sea Level Pressure  
Sea Level Pressure 30.20 in    
Wind  
Wind Speed 15 mph (WSW)    
Max Wind Speed 28 mph    
Max Gust Speed 31 mph    
Visibility 10 miles    
Events      
Averages and records for this station are not official NWS values.
T = Trace of Precipitation, MM = Missing Value Source: NWS Daily Summary

Daily Weather History Graph

Daily Weather History Graph

Search for Another Location

Airport or City:

Trip Planner

Search our weather history database for the weather conditions in past years. The results will help you decide how hot, cold, wet, or windy it might be!

Date:

Astronomy

Oct. 26, 2012 Rise Set
Actual Time 7:42 AM CDT 6:01 PM CDT
Civil Twilight 7:11 AM CDT 6:32 PM CDT
Nautical Twilight 6:35 AM CDT 7:07 PM CDT
Astronomical Twilight 6:00 AM CDT 7:42 PM CDT
Moon 4:24 PM CDT (10/26) 4:29 AM CDT (10/26)
Length of Visible Light 11h 21m
Length of Day
10h 18m
Waxing Gibbous, 91% of the Moon is Illuminated
Oct 26
Waxing Gibbous
Oct 29
Full
Nov 6
Last Quarter
Nov 13
New
Nov 20
First Quarter

Hourly Weather History & Observations

Time (CDT) Temp. Windchill Dew Point Humidity Pressure Visibility Wind Dir Wind Speed Gust Speed Precip Events Conditions
12:13 AM 37.4 °F 29.3 °F 30.2 °F 75% 30.01 in 10.0 mi SW 12.7 mph - N/A   Clear
12:33 AM 37.4 °F 29.3 °F 30.2 °F 75% 30.01 in 10.0 mi SW 12.7 mph - N/A   Clear
1:13 AM 37.4 °F 28.5 °F 30.2 °F 75% 30.02 in 10.0 mi WSW 15.0 mph - N/A   Overcast
1:33 AM 37.4 °F 27.8 °F 30.2 °F 75% 30.02 in 10.0 mi WSW 17.3 mph 20.7 mph N/A   Mostly Cloudy
1:54 AM 37.4 °F 28.5 °F 30.2 °F 75% 30.03 in 10.0 mi WSW 15.0 mph - N/A   Scattered Clouds
2:13 AM 37.4 °F 28.2 °F 30.2 °F 75% 30.03 in 10.0 mi WSW 16.1 mph - N/A   Scattered Clouds
2:33 AM 37.4 °F 28.2 °F 30.2 °F 75% 30.04 in 10.0 mi SW 16.1 mph - N/A   Mostly Cloudy
2:54 AM 37.4 °F 28.9 °F 30.2 °F 75% 30.05 in 10.0 mi WSW 13.8 mph - N/A   Overcast
3:13 AM 37.4 °F 28.9 °F 30.2 °F 75% 30.06 in 10.0 mi WSW 13.8 mph - N/A   Overcast
3:54 AM 37.4 °F 28.5 °F 30.2 °F 75% 30.07 in 10.0 mi WSW 15.0 mph 20.7 mph N/A   Overcast
4:13 AM 37.4 °F 28.9 °F 30.2 °F 75% 30.07 in 10.0 mi WSW 13.8 mph - N/A   Overcast
4:33 AM 37.4 °F 28.5 °F 30.2 °F 75% 30.08 in 10.0 mi WSW 15.0 mph - N/A   Overcast
4:54 AM 37.4 °F 28.5 °F 30.2 °F 75% 30.09 in 10.0 mi WSW 15.0 mph 19.6 mph N/A   Scattered Clouds
5:13 AM 37.4 °F 28.9 °F 30.2 °F 75% 30.10 in 10.0 mi WSW 13.8 mph 20.7 mph N/A   Mostly Cloudy
5:34 AM 37.4 °F 28.9 °F 30.2 °F 75% 30.10 in 10.0 mi WSW 13.8 mph 18.4 mph N/A   Scattered Clouds
5:53 AM 37.4 °F 28.9 °F 30.2 °F 75% 30.10 in 10.0 mi WSW 13.8 mph - N/A   Scattered Clouds
6:13 AM 37.4 °F 28.5 °F 30.2 °F 75% 30.11 in 10.0 mi WSW 15.0 mph - N/A   Scattered Clouds
6:34 AM 37.4 °F 28.5 °F 28.4 °F 70% 30.12 in 10.0 mi West 15.0 mph - N/A   Mostly Cloudy
6:53 AM 37.4 °F 28.5 °F 28.4 °F 70% 30.13 in 10.0 mi West 15.0 mph 21.9 mph N/A   Scattered Clouds
7:14 AM 37.4 °F 28.2 °F 30.2 °F 75% 30.14 in 10.0 mi WSW 16.1 mph - N/A   Scattered Clouds
7:54 AM 37.4 °F 29.3 °F 28.4 °F 70% 30.16 in 10.0 mi West 12.7 mph - N/A   Clear
8:34 AM 37.4 °F 27.8 °F 26.6 °F 65% 30.19 in 10.0 mi West 17.3 mph 20.7 mph N/A   Scattered Clouds
8:53 AM 37.4 °F 27.5 °F 26.6 °F 65% 30.19 in 10.0 mi West 18.4 mph 29.9 mph N/A   Mostly Cloudy
9:13 AM 37.4 °F 27.2 °F 26.6 °F 65% 30.21 in 10.0 mi West 19.6 mph - N/A   Overcast
9:34 AM 37.4 °F 28.2 °F 26.6 °F 65% 30.21 in 10.0 mi WSW 16.1 mph 25.3 mph N/A   Overcast
10:14 AM 37.4 °F 28.5 °F 26.6 °F 65% 30.22 in 10.0 mi WSW 15.0 mph 21.9 mph N/A   Overcast
10:33 AM 37.4 °F 27.5 °F 26.6 °F 65% 30.23 in 10.0 mi West 18.4 mph 24.2 mph N/A   Overcast
10:53 AM 37.4 °F 27.8 °F 26.6 °F 65% 30.23 in 10.0 mi West 17.3 mph 23.0 mph N/A   Overcast
11:14 AM 39.2 °F 29.8 °F 26.6 °F 61% 30.24 in 10.0 mi WSW 18.4 mph 23.0 mph N/A   Overcast
11:33 AM 39.2 °F 29.8 °F 24.8 °F 56% 30.24 in 10.0 mi West 18.4 mph 21.9 mph N/A   Overcast
11:53 AM 37.4 °F 27.2 °F 24.8 °F 60% 30.25 in 10.0 mi West 19.6 mph 27.6 mph N/A   Overcast
12:14 PM 39.2 °F 27.8 °F 23.0 °F 52% 30.25 in 10.0 mi West 27.6 mph 31.1 mph N/A   Mostly Cloudy
12:33 PM 39.2 °F 29.0 °F 23.0 °F 52% 30.25 in 10.0 mi West 21.9 mph 25.3 mph N/A   Overcast
12:53 PM 39.2 °F 29.0 °F 23.0 °F 52% 30.25 in 10.0 mi West 21.9 mph 26.5 mph N/A   Overcast
1:14 PM 39.2 °F 30.2 °F 24.8 °F 56% 30.25 in 10.0 mi West 17.3 mph 24.2 mph N/A   Overcast
1:33 PM 39.2 °F 30.8 °F 24.8 °F 56% 30.25 in 10.0 mi WSW 15.0 mph 21.9 mph N/A   Overcast
1:53 PM 39.2 °F 28.7 °F 23.0 °F 52% 30.25 in 10.0 mi WSW 23.0 mph 27.6 mph N/A   Overcast
2:14 PM 39.2 °F 29.3 °F 23.0 °F 52% 30.25 in 10.0 mi West 20.7 mph 27.6 mph N/A   Overcast
2:33 PM 39.2 °F 29.8 °F 23.0 °F 52% 30.25 in 10.0 mi West 18.4 mph 21.9 mph N/A   Overcast
2:53 PM 39.2 °F 29.8 °F 23.0 °F 52% 30.25 in 10.0 mi WSW 18.4 mph 23.0 mph N/A   Overcast
3:14 PM 39.2 °F 30.8 °F 21.2 °F 49% 30.25 in 10.0 mi WSW 15.0 mph 23.0 mph N/A   Overcast
3:33 PM 39.2 °F 30.8 °F 24.8 °F 56% 30.25 in 10.0 mi WSW 15.0 mph 26.5 mph N/A   Overcast
3:53 PM 39.2 °F 31.6 °F 24.8 °F 56% 30.25 in 10.0 mi WSW 12.7 mph - N/A   Overcast
4:14 PM 39.2 °F 31.2 °F 23.0 °F 52% 30.25 in 10.0 mi West 13.8 mph - N/A   Overcast
4:33 PM 39.2 °F 29.3 °F 21.2 °F 49% 30.25 in 10.0 mi WSW 20.7 mph - N/A   Overcast
4:53 PM 39.2 °F 30.8 °F 23.0 °F 52% 30.26 in 10.0 mi West 15.0 mph - N/A   Overcast
5:14 PM 39.2 °F 32.0 °F 23.0 °F 52% 30.25 in 10.0 mi West 11.5 mph - N/A   Overcast
5:34 PM 39.2 °F 32.5 °F 23.0 °F 52% 30.25 in 10.0 mi West 10.4 mph - N/A   Overcast
5:53 PM 39.2 °F 32.5 °F 23.0 °F 52% 30.26 in 10.0 mi West 10.4 mph - N/A   Overcast
6:14 PM 37.4 °F 30.8 °F 24.8 °F 60% 30.26 in 10.0 mi West 9.2 mph - N/A   Overcast
6:33 PM 37.4 °F 30.8 °F 23.0 °F 56% 30.27 in 10.0 mi West 9.2 mph - N/A   Overcast
6:53 PM 37.4 °F 29.3 °F 24.8 °F 60% 30.27 in 10.0 mi WNW 12.7 mph - N/A   Overcast
7:14 PM 37.4 °F 29.8 °F 24.8 °F 60% 30.28 in 10.0 mi West 11.5 mph - N/A   Overcast
7:33 PM 37.4 °F 30.3 °F 24.8 °F 60% 30.28 in 10.0 mi West 10.4 mph - N/A   Overcast
7:53 PM 37.4 °F 31.4 °F 24.8 °F 60% 30.28 in 10.0 mi West 8.1 mph - N/A   Overcast
8:14 PM 37.4 °F 30.3 °F 24.8 °F 60% 30.28 in 10.0 mi West 10.4 mph - N/A   Overcast
8:33 PM 37.4 °F 32.1 °F 24.8 °F 60% 30.28 in 10.0 mi WSW 6.9 mph - N/A   Overcast
9:14 PM 37.4 °F 32.1 °F 24.8 °F 60% 30.28 in 10.0 mi WSW 6.9 mph - N/A   Overcast
9:33 PM 37.4 °F 32.1 °F 24.8 °F 60% 30.28 in 10.0 mi SW 6.9 mph - N/A   Overcast
9:53 PM 37.4 °F 31.4 °F 24.8 °F 60% 30.29 in 10.0 mi WSW 8.1 mph - N/A   Overcast
10:14 PM 37.4 °F 30.3 °F 23.0 °F 56% 30.29 in 10.0 mi West 10.4 mph - N/A   Overcast
10:33 PM 35.6 °F 29.2 °F 24.8 °F 65% 30.29 in 10.0 mi West 8.1 mph - N/A   Overcast
11:13 PM 35.6 °F 29.2 °F 23.0 °F 60% 30.29 in 10.0 mi WSW 8.1 mph - N/A   Overcast
11:33 PM 35.6 °F 29.9 °F 23.0 °F 60% 30.30 in 10.0 mi WSW 6.9 mph - N/A   Overcast
11:54 PM 35.6 °F 29.9 °F 23.0 °F 60% 30.29 in 10.0 mi WSW 6.9 mph - N/A   Overcast